Lexington Weather

Lexington, Massachusetts, USA

36°F
1/28/2020 5:37am 
  • Lexington Conditions: Overcast
  • Temperature: 36.3°F / 2.4°CWarmer 0.3°F than last hour.
  • Dew Point: 29.8°FIncreased 0.3°Fsince last hour.
  • Relative Humidity: 77
  • Wind: Wind from NW NW 2 mph, 10-min avg: 2 mph, gust: 5 mph
  • Barometer: 29.64 inRising 0.02  inHg/hr Rising Slowly
  • Visibility: 10 miles
  • Rain Today: 0.00 in
  •   

Regional Weather Roundup
for Boston / Norton, MA

        
000
ASUS41 KBOX 260901
RWRBOX

REGIONAL WEATHER ROUNDUP
NATIONAL WEATHER SERVICE BOSTON/NORTON MA
400 AM EST SUN JAN 26 2020

NOTE:  "FAIR" INDICATES FEW OR NO CLOUDS BELOW 12,000 FEET WITH NO 
SIGNIFICANT WEATHER AND/OR OBSTRUCTIONS TO VISIBILITY.

MAZALL-261000-
EASTERN MASSACHUSETTS
  
CITY           SKY/WX    TMP DP  RH WIND       PRES   REMARKS
BOSTON         CLOUDY    48  42  80 SW12      29.67S                  
BEVERLY        CLOUDY    44  41  89 W10       29.65S                  
LAWRENCE       FOG       40  40 100 W3        29.67F VSB 1/2          
BEDFORD        CLOUDY    41  39  93 SW5       29.66F                  
BLUE HILL        N/A     42  41  96 W14G22    29.65S                  
NORWOOD        CLOUDY    48  41  76 W6        29.68S                  
MARSHFIELD     NOT AVBL                                               
PLYMOUTH       CLOUDY    45  44  97 SW6       29.68S                  
TAUNTON        CLOUDY    45  44  97 SW5       29.68S                  
NEW BEDFORD    CLOUDY    44 N/A N/A SW5       29.68F                  
$$

MAZALL-261000-
CAPE COD AND THE ISLANDS
  
CITY           SKY/WX    TMP DP  RH WIND       PRES   REMARKS
FALMOUTH       FOG       43  43 100 W17       29.69S VSB 1            
HYANNIS        NOT AVBL                                               
CHATHAM        CLOUDY    43  43 100 SW7       29.70S FOG              
PROVINCETOWN   FAIR      43  43 100 S9        29.68F                  
NANTUCKET      FOG       42  41  96 SW10      29.71F VSB 3/4          
MARTHAS VNYRD  CLOUDY    44  42  93 W12       29.70S                  
$$
 
MAZALL-261000-
CENTRAL AND WESTERN MASSACHUSETTS
  
CITY           SKY/WX    TMP DP  RH WIND       PRES   REMARKS
WORCESTER      CLOUDY    38  37  97 W9        29.66S WCI  31          
FITCHBURG      CLOUDY    36  35  96 VRB3      29.68S FOG              
ORANGE         FOG       36  34  92 CALM      29.69F VSB 1/2          
SPRINGFIELD    CLOUDY    36  36  99 NW5       29.70R                  
WESTFIELD      MOCLDY    38  32  79 NW15G22   29.72R WCI  29          
NORTH ADAMS    CLOUDY    36  31  82 W15       29.73S WCI  27          
PITTSFIELD     CLOUDY    35  31  85 W12       29.70S WCI  27          
$$
 
RIZALL-261000-
RHODE ISLAND
  
CITY           SKY/WX    TMP DP  RH WIND       PRES   REMARKS
PROVIDENCE     CLOUDY    46  42  86 W9        29.70S                  
NEWPORT        CLOUDY    44  41  89 SW7       29.69S FOG              
BLOCK ISLAND   CLOUDY    41  39  93 W13G20    29.72F                  
SMITHFIELD     CLOUDY    43  42  97 W7        29.68F                  
WESTERLY       CLOUDY    46  40  79 W5        29.72S                  
$$
 
CTZALL-261000-
CONNECTICUT
  
CITY           SKY/WX    TMP DP  RH WIND       PRES   REMARKS
BRADLEY INTL   MOCLDY    38  35  89 CALM      29.72S                  
HARTFORD       MOCLDY    40  35  83 NW6       29.74R                  
BRIDGEPORT     CLOUDY    38  36  92 SW6       29.77R                  
DANBURY        FAIR      32  32 100 W6        29.76R WCI  26          
GROTON         NOT AVBL                                               
NEW HAVEN      CLOUDY    43  38  82 NW7       29.74F                  
CHESTER        NOT AVBL                                               
MERIDEN        FAIR      34  32  92 CALM      29.74S FOG              
WILLIMANTIC    CLOUDY    41  39  93 NW8       29.72S                  
OXFORD         CLOUDY    37  37 100 NW6       29.73S                  
$$

MEZ002-015-021-024-NHZ003-005-008-011-012-014-VTZ005-008-261000-
NORTHERN NEW ENGLAND
  
CITY           SKY/WX    TMP DP  RH WIND       PRES   REMARKS
PORTLAND ME    FOG       41  39  93 N7        29.63F VSB 3/4          
BANGOR ME      LGT RAIN  35  34  96 NE13      29.77F WCI  26          
CONCORD NH     CLOUDY    36  34  92 NW8       29.66F FOG     WCI  30  
MANCHESTER NH  CLOUDY    38  37  97 NW6       29.65F FOG              
NASHUA NH      CLOUDY    39  39 100 NW7       29.67S                  
PORTSMOUTH NH  NOT AVBL                                               
JAFFREY NH     CLOUDY    35  33  92 CALM      29.65F                  
KEENE NH       FOG       34  34 100 CALM      29.69S VSB 1/2          
BURLINGTON VT  CLOUDY    33  31  92 SE3       29.69F FOG              
MT. WASHINGTON NOT AVBL                                               
$$

NYZ052-076-261000-
EASTERN NEW YORK
  
CITY           SKY/WX    TMP DP  RH WIND       PRES   REMARKS
ALBANY         CLOUDY    38  32  79 CALM      29.76F                  
NEW YORK CITY  FAIR      41  34  76 W12       29.79R                  
$$
 
ANZALL-261000-
MARINE OBSERVATIONS
  
STATION/POSITION TIME  TEMP    WIND        PRES    VSBY  WAVE
                       AIR SEA DIR/SP/G                  HT/PER
                 (UTC) (F)     (DEG/KT/KT) (MB)    (MI)  (FT/S)
BOSTON BUOY      0750   46 43  230/ 10/ 14 1003.8          8/ 8
BUZZARDS BAY     0800   44     240/ 17/ 20 1006.3S
NANTUCKET SOUND  0800                      1005.9
MASS BAY-STELLWA 0804   44 42  270/  8/ 12 1002.4R  1 7/8 11/ 8
ISLE OF SHOALS   0800   45     210/ 12/ 13 1003.6S
S OF BLOCK IS    0830      44                N/A           7/ 8
$$

......................KEY.........................
  SKY/WX - SKY CONDITION/PRESENT WEATHER
  TMP    - TEMPERATURE IN FAHRENHEIT
  DWPT   - DEWPOINT IN FAHRENHEIT
  RH     - RELATIVE HUMIDITY IN PERCENT
  WIND   - DIRECTION AND SPEED IN MPH
  PRES   - MEAN SEA LEVEL PRESSURE IN INCHES OF HG
  WCI    - WIND CHILL INDEX
  VSB    - VISIBILITY IN MILES
  HX     - HEAT INDEX
  TC     - TEMPERATURE IN CELSIUS
  VRB    - VARIABLE WIND DIRECTION
  N/A    - NOT AVAILABLE
  
      

Other recent Regional Weather Roundups

Tue Jan 28, 5:10am

Tue Jan 28, 5:00am

Tue Jan 28, 4:10am

Tue Jan 28, 4:00am

Tue Jan 28, 3:10am

Tue Jan 28, 3:01am

Tue Jan 28, 2:10am

Tue Jan 28, 2:00am

Tue Jan 28, 1:10am

Tue Jan 28, 1:00am

Tue Jan 28, 12:10am

Tue Jan 28, 12:01am

Mon Jan 27, 11:10pm

Mon Jan 27, 11:00pm

Mon Jan 27, 10:10pm

Mon Jan 27, 10:00pm

Mon Jan 27, 9:10pm

Mon Jan 27, 9:00pm

Mon Jan 27, 8:10pm

Mon Jan 27, 8:01pm

Mon Jan 27, 7:10pm

Mon Jan 27, 7:00pm

Mon Jan 27, 6:10pm

Mon Jan 27, 6:00pm

Mon Jan 27, 5:10pm

Mon Jan 27, 5:00pm

Mon Jan 27, 4:10pm

Mon Jan 27, 4:00pm

Mon Jan 27, 3:10pm

Mon Jan 27, 3:00pm

Mon Jan 27, 2:10pm

Mon Jan 27, 2:00pm

Mon Jan 27, 1:10pm

Mon Jan 27, 1:00pm

Mon Jan 27, 12:10pm

Mon Jan 27, 12:00pm

Mon Jan 27, 11:10am

Mon Jan 27, 11:01am

Mon Jan 27, 10:10am

Mon Jan 27, 10:00am

Mon Jan 27, 9:10am

Mon Jan 27, 9:00am

Mon Jan 27, 8:10am

Mon Jan 27, 8:00am

Mon Jan 27, 7:10am

Mon Jan 27, 7:00am

Mon Jan 27, 6:10am

Mon Jan 27, 6:00am

Mon Jan 27, 5:10am

Mon Jan 27, 5:00am

Mon Jan 27, 4:10am

Mon Jan 27, 4:01am

Mon Jan 27, 3:10am

Mon Jan 27, 3:00am

Mon Jan 27, 2:10am

Mon Jan 27, 2:00am

Mon Jan 27, 1:10am

Mon Jan 27, 1:00am

Mon Jan 27, 12:10am

Mon Jan 27, 12:00am

Sun Jan 26, 11:10pm

Sun Jan 26, 11:00pm

Sun Jan 26, 10:10pm

Sun Jan 26, 10:00pm

Sun Jan 26, 9:10pm

Sun Jan 26, 9:01pm

Sun Jan 26, 8:10pm

Sun Jan 26, 8:00pm

Sun Jan 26, 7:10pm

Sun Jan 26, 7:00pm

Sun Jan 26, 6:10pm

Sun Jan 26, 6:01pm

Sun Jan 26, 5:10pm

Sun Jan 26, 5:01pm

Sun Jan 26, 4:10pm

Sun Jan 26, 4:00pm

Sun Jan 26, 3:10pm

Sun Jan 26, 3:01pm

Sun Jan 26, 2:10pm

Sun Jan 26, 2:01pm

Sun Jan 26, 1:10pm

Sun Jan 26, 1:00pm

Sun Jan 26, 12:10pm

Sun Jan 26, 12:00pm

Sun Jan 26, 11:10am

Sun Jan 26, 11:01am

Sun Jan 26, 10:10am

Sun Jan 26, 10:01am

Sun Jan 26, 9:10am

Sun Jan 26, 9:00am

Sun Jan 26, 8:10am

Sun Jan 26, 8:00am

Sun Jan 26, 7:10am

Sun Jan 26, 7:00am

Sun Jan 26, 6:10am

Sun Jan 26, 6:00am

Sun Jan 26, 5:10am

Sun Jan 26, 5:00am

Sun Jan 26, 4:10am

Sun Jan 26, 3:10am

Sun Jan 26, 3:01am

Sun Jan 26, 2:10am

Sun Jan 26, 2:00am

Sun Jan 26, 1:10am

Sun Jan 26, 1:00am

Sun Jan 26, 12:10am

Sun Jan 26, 12:00am

Sat Jan 25, 11:10pm

Sat Jan 25, 11:00pm

Sat Jan 25, 10:10pm

Sat Jan 25, 10:01pm

Sat Jan 25, 9:10pm

Sat Jan 25, 9:01pm

Sat Jan 25, 8:10pm

Sat Jan 25, 8:01pm

Sat Jan 25, 7:10pm

Sat Jan 25, 7:01pm

Sat Jan 25, 6:10pm

Sat Jan 25, 6:01pm

Sat Jan 25, 5:10pm

Sat Jan 25, 5:01pm

Sat Jan 25, 4:10pm

Sat Jan 25, 4:00pm

Sat Jan 25, 3:10pm

Sat Jan 25, 3:01pm

Sat Jan 25, 2:10pm

Sat Jan 25, 2:00pm

Sat Jan 25, 1:10pm

Sat Jan 25, 1:00pm

Sat Jan 25, 12:10pm

Sat Jan 25, 12:00pm

Sat Jan 25, 11:10am

Sat Jan 25, 11:00am

Sat Jan 25, 10:10am

Sat Jan 25, 10:00am

Sat Jan 25, 9:10am

Sat Jan 25, 9:00am

Sat Jan 25, 8:10am

Sat Jan 25, 8:01am

Sat Jan 25, 7:10am

Sat Jan 25, 7:00am

Sat Jan 25, 6:10am

Sat Jan 25, 6:00am

Meta data:

ID: 8403a8e2-33c6-4b43-8b12-f4918d336668
Link: https://api.weather.gov/products/8403a8e2-33c6-4b43-8b12-f4918d336668